Regional Weather Roundup
Issued by NWS

Home | Current Version | Previous Version | Graphics & Text | Print | Product List | Glossary On
Versions: 1 2 3 4 5 6 7 8 9 10 11 12 13 14 15 16 17 18 19 20 21 22 23 24 25 26 27 28 29 30 31 32 33 34 35 36 37 38 39 40 41 42 43 44 45 46 47 48 49 50
000
ASUS43 KIND 160009
RWRIN

WEATHER ROUNDUP FOR INDIANA
NATIONAL WEATHER SERVICE INDIANAPOLIS IN
700 PM EST SUN JAN 15 2017

NOTE: "FAIR" INDICATES FEW OR NO CLOUDS BELOW 12,000 FEET WITH NO
SIGNIFICANT WEATHER AND/OR OBSTRUCTIONS TO VISIBILITY.

* - STATION DOES NOT REPORT WEATHER SUCH AS PRECIPITATION OR FOG.

+ - STATION NOT QUALITY CONTROLLED BY THE NATIONAL WEATHER SERVICE.
    USE DATA WITH CAUTION...ESPECIALLY DEWPOINT AND RELATIVE
    HUMIDITY OBSERVATIONS.

INZ001>003-010>013-019-020-160100-
NORTHWEST INDIANA

CITY           SKY/WX    TMP DP  RH WIND       PRES   REMARKS
GARY /AIRPORT/ MOCLDY    34  27  75 CALM      30.34F
KNOX *+        CLOUDY    32  14  47 SE3       30.34S
LA PORTE +     CLOUDY    32  28  85 CALM      30.34F
6HR MIN TEMP:  31; 6HR MAX TEMP:  33;

MICHIGAN CITY+ CLOUDY    32  27  80 CALM      30.35S
MONTICELLO +   CLOUDY    32  25  74 E5        30.33S WCI  27
6HR MIN TEMP:  32; 6HR MAX TEMP:  34;

RENSSELAER +   CLOUDY    32  32 100 E5        30.34S WCI  27
VALPARAISO     CLOUDY    33  28  81 E3        30.34F
6HR MIN TEMP:  33; 6HR MAX TEMP:  34;


$$

LMZ046-743>745-160100-
SOUTHERN LAKE MICHIGAN

STATION/POSITION TIME  TEMP    WIND        PRES    WAVE
                       AIR SEA DIR/SP/G            HT
                 (UTC) (F)     (DEG/KT/KT) (MB)    (FT)
BURNS HARBOR     2340   33     170/  2/  6 1028.1R
MICHIGAN CITY    2340   33     140/  4/  4   N/A

$$

INZ004-005-014>016-021>024-160100-
NORTH CENTRAL INDIANA

CITY           SKY/WX    TMP DP  RH WIND       PRES   REMARKS
GOSHEN         PTCLDY    31  23  72 CALM      30.34S
6HR MIN TEMP:  30; 6HR MAX TEMP:  35;

LOGANSPORT +   CLOUDY    32  27  80 E5        30.36R WCI  27
PERU/GRISSOM   CLOUDY    31  27  84 E3        30.33S
6HR MIN TEMP:  31; 6HR MAX TEMP:  33;

ROCHESTER +    PTCLDY    34  28  80 SE3       30.35S
SOUTH BEND     PTCLDY    30  24  78 S6        30.35S WCI  24
6HR MIN TEMP:  29; 6HR MAX TEMP:  36;

WARSAW +       CLOUDY    30  14  51 CALM      30.34S

$$

INZ006>009-017-018-025>027-160100-
NORTHEAST INDIANA

CITY           SKY/WX    TMP DP  RH WIND       PRES   REMARKS
ANGOLA *+      CLEAR     28  25  86 CALM      30.33F
AUBURN +       CLOUDY    28  23  80 CALM      30.35F
FORT WAYNE     MOCLDY    29  22  75 SE3       30.35F
6HR MIN TEMP:  28; 6HR MAX TEMP:  33;

HUNTINGTON +   CLOUDY    30  23  75 CALM      30.35S
6HR MIN TEMP:  29; 6HR MAX TEMP:  32;

KENDALLVILLE + CLOUDY    28  22  78 SE3       30.34S

$$

INZ028-029-035-036-043>045-051>053-160100-
WEST CENTRAL INDIANA

CITY           SKY/WX    TMP DP  RH WIND       PRES   REMARKS
CRAWFORDSVL +  CLOUDY    31  31 100 E3        30.33S FOG
6HR MIN TEMP:  31; 6HR MAX TEMP:  32;

GREENCASTLE +  CLOUDY    34  32  93 E5        30.33S FOG     WCI  30
LAFAYETTE      CLOUDY    33  28  81 E7        30.33F WCI  27
6HR MIN TEMP:  32; 6HR MAX TEMP:  35;

TERRE HAUTE    CLOUDY    36  32  85 E6        30.33S FOG
6HR MIN TEMP:  34; 6HR MAX TEMP:  37; 6HR PCP: TRACE;


$$

INZ030>032-037>040-046>048-054>057-064-065-160100-
CENTRAL INDIANA

CITY           SKY/WX    TMP DP  RH WIND       PRES   REMARKS
CP ATTERBURY + DRIZZLE   36  34  93 CALM      30.35R
COLUMBUS       LGT RAIN  36  36 100 NE3       30.34R FOG
FRANKFORT +    CLOUDY    35  32  88 SE6       30.34F WCI  30
6HR MIN TEMP:  35; 6HR MAX TEMP:  37;

GREENWOOD *+   CLOUDY    35  33  90 NE5       30.35R WCI  31
6HR MIN TEMP:  35; 6HR MAX TEMP:  36;

INDIANAPOLIS   CLOUDY    35  30  82 E6        30.33S WCI  30
6HR MIN TEMP:  33; 6HR MAX TEMP:  35;

-EAGLE CREEK   CLOUDY    34  29  82 E5        30.33S WCI  30
6HR MIN TEMP:  33; 6HR MAX TEMP:  36;

KOKOMO +       MOCLDY    31  28  89 NE6       30.35S WCI  25
6HR MIN TEMP:  31; 6HR MAX TEMP:  34;

MARION +       MOCLDY    30  27  86 CALM      30.36R FOG
MT COMFORT *+  CLOUDY    32  30  93 SE3       30.34R
SHELBYVILLE    CLOUDY    36  31  82 NE5       30.33R HAZE
6HR MIN TEMP:  35; 6HR MAX TEMP:  37;

ZIONSVILLE +   CLOUDY    32  30  92 CALM      30.34S FOG
6HR MIN TEMP:  31; 6HR MAX TEMP:  33;


$$

INZ033-034-041-042-049-050-058-059-160100-
EAST CENTRAL INDIANA

CITY           SKY/WX    TMP DP  RH WIND       PRES   REMARKS
MUNCIE         CLOUDY    34  29  82 E5        30.34S WCI  30
6HR MIN TEMP:  33; 6HR MAX TEMP:  35;


$$

INZ060-061-067>069-081>083-085>088-160100-
SOUTHWEST INDIANA

CITY           SKY/WX    TMP DP  RH WIND       PRES   REMARKS
EVANSVILLE     CLOUDY    40  38  93 NE5       30.32R
6HR MIN TEMP:  40; 6HR MAX TEMP:  41; 6HR PCP:  0.02;

HUNTINGBURG *+ CLOUDY    39  37  93 NE5       30.32R
6HR MIN TEMP:  37; 6HR MAX TEMP:  39; 6HR PCP:  0.07;

WASHINGTON +   LGT RAIN  37  36  94 NE6       30.32S
6HR MIN TEMP:  37; 6HR MAX TEMP:  37; 6HR PCP:  0.07;


$$

INZ062-063-066-070>080-084-089>092-160100-
SOUTH CENTRAL AND SOUTHEAST INDIANA

CITY           SKY/WX    TMP DP  RH WIND       PRES   REMARKS
BLOOMINGTON    LGT RAIN  36  33  89 E6        30.32S FOG
6HR MIN TEMP:  35; 6HR MAX TEMP:  37; 6HR PCP:  0.06;

MADISON *+     CLOUDY    37  36  93 NE3       30.33F
NORTH VERNON + RAIN     N/A N/A N/A E3        30.33R
SEYMOUR +      DRIZZLE   39  37  93 NE5       30.34R

$$





USA.gov is the U.S. government's official web portal to all federal, state and local government web resources and services.